Regional Weather Roundup
Issued by NWS

Home | Current Version | Previous Version | Graphics & Text | Print | Product List | Glossary Off
Versions: 1 2 3 4 5 6 7 8 9 10 11 12 13 14 15 16 17 18 19 20 21 22 23 24 25 26 27 28 29 30 31 32 33 34 35 36 37 38 39 40 41 42 43 44 45 46 47 48 49 50

000
ASUS43 KMPX 190210
RWRMN
WEATHER ROUNDUP FOR MINNESOTA
NATIONAL WEATHER SERVICE TWIN CITIES/CHANHASSEN MN
900 PM CDT SAT APR 18 2015


NOTE: "FAIR" INDICATES FEW OR NO CLOUDS BELOW 12,000 FEET WITH NO
SIGNIFICANT WEATHER AND/OR OBSTRUCTIONS TO VISIBILITY. N/A MEANS
CURRENT SKY AND/OR WEATHER CONDITIONS ARE NOT AVAILABLE.

MNZ060>063-068>070-190300-
   Twin Cities Metro

CITY           SKY/WX    TMP DP  RH WIND       PRES   REMARKS
TWIN CITIES    CLOUDY    67  36  31 E15       29.91R
ST PAUL        CLOUDY    65  35  33 SE12      29.93R
CRYSTAL        CLOUDY    66  36  32 E9        29.91R
BLAINE         CLOUDY    64  36  34 E12G17    29.93R
LAKEVILLE      CLOUDY    63  54  72 S7        29.92R
EDEN PRAIRIE   CLOUDY    67  37  33 E13       29.90R
SOUTH ST PAUL  CLOUDY    67  33  28 SE10G17   29.92R
LAKE ELMO      CLOUDY    63  34  34 SE9       29.96R
$$
MNZ001>005-007-008-013>017-022>024-027-028-190300-
   Northwest Minnesota

CITY           SKY/WX    TMP DP  RH WIND       PRES   REMARKS
BEMIDJI        CLOUDY    56  32  38 SE10      29.93S
HALLOCK        MOCLDY    61  25  25 SE10      29.86F
ROSEAU         CLOUDY    57  28  33 SE7       29.91F
WARROAD        CLOUDY    46  36  66 SE3       29.93S
THIEF RVR FALL CLOUDY    57  30  35 E9        29.89F
CROOKSTON      CLOUDY    64  30  27 E5        29.87F
FOSSTON        CLOUDY    57  27  30 E7        29.90S
DETROIT LAKES  CLOUDY    63  32  31 SE12      29.90F
MOORHEAD       CLOUDY    64  28  25 E8        29.86S
PARK RAPIDS    CLOUDY    61  33  35 E9        29.91F
MAHNOMEN       FAIR      61  31  32 SE5       29.88F
$$
MNZ006-009>011-018-025>026-190300-
   North Central Minnesota

CITY           SKY/WX    TMP DP  RH WIND       PRES   REMARKS
BAUDETTE       CLOUDY    55  24  30 SE9       29.94F
FLAG ISLAND    CLOUDY    52  23  32 E10       29.91F
INTL FALLS     CLOUDY    52  13  21 SE14G20   29.98F
WASKISH        CLOUDY    55  25  30 E3        29.95S
BIG FORK       MOCLDY    54  30  40 SE9       29.99S
LONGVILLE      CLOUDY    54  32  43 E6        29.96S
GRAND RAPIDS   CLOUDY    48  28  46 E6        30.00S
ORR            MOCLDY    48  18  29 SE3       29.99S
COOK           MOCLDY    48  27  43 E6G16     30.02F
WALKER         FAIR      54  36  50 E6        29.93F
$$
MNZ012-019>021-037-190300-
   Northeast Minnesota

CITY           SKY/WX    TMP DP  RH WIND       PRES   REMARKS
DULUTH         MOCLDY    41  26  55 E17       30.03F
ELY            PTCLDY    43  18  36 SE10      30.05F
HIBBING        MOCLDY    45  26  47 SE10      30.02F
EVELETH        PTCLDY    43  25  49 E6        30.04F
DULUTH HARBOR  MOCLDY    39  34  81 NE24      30.07F
TWO HARBORS    MOCLDY    45  27  49 NE12G21   30.04F
SILVER BAY     MOCLDY    43  23  45 NE12G18   30.07F
GRAND MARAIS     N/A     45  21  38 NE15      30.12F
G MARAIS ARPRT CLEAR     39  12  33 E10       30.11F
$$
MNZ029>031-032-039>041-046>048-054>057-064-190300-
   West Central Minnesota

CITY           SKY/WX    TMP DP  RH WIND       PRES   REMARKS
FERGUS FALLS   CLOUDY    64  27  24 SE9       29.87S
WHEATON        DRIZZLE   59  39  47 SE18      29.88R
MORRIS         LGT RAIN  55  48  76 E9        29.87S
ALEXANDRIA     CLOUDY    59  39  47 SE17      29.92R
ELBOW LAKE     CLOUDY    64  32  30 SE9       29.87S
WADENA         CLOUDY    61  34  36 E9        29.90S
GLENWOOD       DRIZZLE   54  46  76 NE7       29.90F
APPLETON       DRIZZLE   59  54  82 CALM      29.85F
BENSON         LGT RAIN  55  45  67 E3        29.86F
ORTONVILLE     LGT RAIN  57  54  88 E5        29.86S
MADISON        LGT RAIN  57  55  94 CALM      29.84F
WILLMAR        LGT RAIN  63  39  42 E15       29.87F
$$
MNZ033>034-036-042>043-049>051-058-059-190300-
   Central Minnesota

CITY           SKY/WX    TMP DP  RH WIND       PRES   REMARKS
ST CLOUD       LGT RAIN  61  38  42 E8        29.92R
SAUK CENTRE    CLOUDY    61  37  40 E12       29.91S
PAYNESVILLE    CLOUDY    59  36  41 NE10G17   29.89S
AITKIN         CLOUDY    46  34  61 E12       29.97S
PINE RIVER     CLOUDY    54  36  50 E10       29.98S
BRAINERD       CLOUDY    52  33  48 E8        29.95S
STAPLES        CLOUDY    59  30  33 E5        29.91F
LONG PRAIRIE   DRIZZLE   59  36  41 E6G17     29.91S
LITTLE FALLS   CLOUDY    55  34  44 E8        29.93R
LITCHFIELD     DRIZZLE   61  52  72 SE9       29.90R
BUFFALO        CLOUDY    64  35  35 E10       29.92R
MAPLE LAKE     CLOUDY    63  40  42 E8        29.92R
$$
MNZ037-044-045-052-053-190300-
   East Central Minnesota

CITY           SKY/WX    TMP DP  RH WIND       PRES   REMARKS
PRINCETON      RAIN      59  43  55 NE7       29.95R
MORA           CLOUDY    48  34  57 NE9       29.98R
CAMBRIDGE      RAIN      64  43  45 E7        29.93R
RUSH CITY      CLOUDY    58  36  43 NE7       29.96R
MOOSE LAKE     CLOUDY    37  32  81 E10G18    30.00S
HINCKLEY       FAIR      45  34  65 NE10      29.98S
CLOQUET        MOCLDY    39  27  60 E12G17    30.02F
MCGREGOR       CLOUDY    43  32  65 E9        30.00F
$$
MNZ071>073-080-081-089-090-097-098-190300-
   Southwest Minnesota

CITY           SKY/WX    TMP DP  RH WIND       PRES   REMARKS
MONTEVIDEO     DRIZZLE   57  55  94 E8        29.85F
GRANITE FALLS  DRIZZLE   56  55  95 CALM      29.86S
CANBY          RAIN      56  55  94 SE5       29.85F
MARSHALL       CLOUDY    55  50  82 SE10      29.83F
REDWOOD FALLS  LGT RAIN  57  56  96 NE5       29.84F FOG
OLIVIA         LGT RAIN  54  52  94 E5        29.85F
PIPESTONE      DRIZZLE   55  54  94 SE7       29.82S
WINDOM         CLOUDY    55  54  94 E14       29.82F
WORTHINGTON    CLOUDY    55  52  88 E7        29.83S
JACKSON        LGT RAIN  55  54  94 E10       29.84R
TRACY          DRIZZLE   56  55  97 SE6       29.84S
SLAYTON        CLOUDY    55  55 100 CALM      29.84S
$$
MNZ065>067-074>077-082>085-091>093-190300-
   South Central Minnesota

CITY           SKY/WX    TMP DP  RH WIND       PRES   REMARKS
MANKATO        CLOUDY    57  50  77 SE18      29.90S
NEW ULM        LGT RAIN  57  55  94 E10       29.85F
ST JAMES       CLOUDY    59  55  88 E16       29.86R
FAIRMONT       CLOUDY    57  52  82 E18G25    29.85R
GLENCOE        LGT RAIN  60  57  90 SE6       29.90S
FARIBAULT      LGT RAIN  59  57  94 SE3       29.93F
OWATONNA       LGT RAIN  59  55  88 SE7       29.93F
ALBERT LEA     LGT RAIN  57  57 100 E10       29.90F
$$
MNZ078>079-086>088-094>096-190300-
   Southeast Minnesota

CITY           SKY/WX    TMP DP  RH WIND       PRES   REMARKS
ROCHESTER      LGT RAIN  57  51  80 SW9       29.97R
RED WING       CLOUDY    66  30  26 SE10      29.93R
STANTON        CLOUDY    64  52  64 S7        29.92R
DODGE CENTER   LGT RAIN  57  54  88 S7        29.95S
WINONA         CLOUDY    61  32  33 SE13      29.95S
AUSTIN         LGT RAIN  57  54  88 E7        29.92F
PRESTON        CLOUDY    63  38  39 SE3       29.94R
$$
ABBREVIATIONS USED IN REMARKS
   TC - TEMPERATURES IN CELSIUS
  WCI - WIND CHILL INDEX
   HX - HEAT INDEX
  VSB - VISIBILITY
$$


USA.gov is the U.S. government's official web portal to all federal, state and local government web resources and services.